TimeMDT,TemperatureF,Dew PointF,Humidity,Sea Level PressureIn,VisibilityMPH,Wind Direction,Wind SpeedMPH,Gust SpeedMPH,PrecipitationIn,Events,Conditions,WindDirDegrees,DateUTC
12:53 AM,32.0,19.0,59,30.06,10.0,Calm,Calm,-,N/A,,Clear,0,2013-03-12 06:53:00
1:53 AM,30.0,18.0,61,30.06,10.0,ENE,3.5,-,N/A,,Clear,70,2013-03-12 07:53:00
2:53 AM,30.9,19.0,61,30.04,10.0,Calm,Calm,-,N/A,,Clear,0,2013-03-12 08:53:00
3:53 AM,28.9,19.0,67,30.03,10.0,Calm,Calm,-,N/A,,Clear,0,2013-03-12 09:53:00
4:53 AM,25.0,18.0,75,30.07,10.0,Calm,Calm,-,N/A,,Clear,0,2013-03-12 10:53:00
5:53 AM,25.0,17.1,72,30.10,10.0,East,3.5,-,N/A,,Clear,80,2013-03-12 11:53:00
6:53 AM,21.9,15.1,75,30.17,10.0,East,3.5,-,N/A,,Clear,80,2013-03-12 12:53:00
7:53 AM,27.0,19.0,72,30.21,10.0,Calm,Calm,-,N/A,,Clear,0,2013-03-12 13:53:00
8:53 AM,36.0,23.0,59,30.24,10.0,Calm,Calm,-,N/A,,Clear,0,2013-03-12 14:53:00
9:53 AM,44.1,24.1,45,30.19,10.0,Calm,Calm,-,N/A,,Clear,0,2013-03-12 15:53:00
10:53 AM,52.0,24.1,34,30.15,10.0,NE,4.6,-,N/A,,Clear,50,2013-03-12 16:53:00
11:53 AM,57.0,23.0,27,30.13,10.0,NNE,9.2,-,N/A,,Clear,30,2013-03-12 17:53:00
12:53 PM,59.0,23.0,25,30.14,10.0,Variable,6.9,-,N/A,,Clear,0,2013-03-12 18:53:00
1:53 PM,60.1,21.9,23,30.12,10.0,SSE,3.5,-,N/A,,Clear,150,2013-03-12 19:53:00
2:53 PM,64.0,21.9,20,30.06,10.0,Variable,3.5,-,N/A,,Clear,0,2013-03-12 20:53:00
3:53 PM,63.0,19.9,19,30.07,10.0,Calm,Calm,-,N/A,,Clear,0,2013-03-12 21:53:00
4:53 PM,64.9,21.9,19,30.08,10.0,WSW,5.8,-,N/A,,Clear,240,2013-03-12 22:53:00
5:53 PM,64.9,21.9,19,30.07,10.0,SSW,5.8,-,N/A,,Clear,200,2013-03-12 23:53:00
6:53 PM,63.0,23.0,22,30.11,10.0,SW,8.1,-,N/A,,Clear,230,2013-03-13 00:53:00
7:53 PM,55.9,23.0,28,30.16,10.0,NNE,8.1,-,N/A,,Clear,30,2013-03-13 01:53:00
8:53 PM,46.9,21.9,37,30.19,10.0,ESE,3.5,-,N/A,,Clear,120,2013-03-13 02:53:00
9:53 PM,43.0,23.0,45,30.19,10.0,Calm,Calm,-,N/A,,Clear,0,2013-03-13 03:53:00
10:53 PM,39.9,21.9,49,30.18,10.0,Calm,Calm,-,N/A,,Clear,0,2013-03-13 04:53:00
11:53 PM,35.1,21.0,57,30.17,10.0,Calm,Calm,-,N/A,,Clear,0,2013-03-13 05:53:00